Voltar ao catálogo

FENGYUN 1C DEB

AtivoSSO
NORAD 37912·DEBRIS·🇨🇳 China

Lançado May 10, 1999 de Taiyuan Satellite Launch Center

Loading…

Próximas Passagens (próximas 24 horas)

TLE

AtualizadoSource: Space-Track

Época: Sep 14, 2026, 10:03 UTC

1 37912U 99025ENM 26257.41880009  .00002560  00000-0  13337-2 0  9991
2 37912  99.2383 239.4635 0090923   9.5378 350.7493 14.13418948811807

Acompanhe FENGYUN 1C DEB em tempo real com AllMySat

Download on the App Store